Радвилишкис

Литва     55°48′44″N   23°32′49″E
темп.,
°C
ветер,
м/с
пор.,
м/с
влажн.,
%
обл.,
%
осадки,
мм/ч
давл.,
гПа
погр.,
м
14 апреля, ср
ср1400:00+2сз258490 0.0 1023172
03:00+1ссз378987 0.0 1022172
06:000ссз359284 0.0 1022129
09:00+3с4675100 0.0 1022337
12:00+6ссв4659100 0.0 1022881
15:00+7ссв675599 0.0 10221258
18:00+7ссв7962100 0.0 10211164
21:00+4ссв61172100 0.0 1022537
15 апреля, чт
чт1500:00+3ссв61178100 0.1 1022631
03:00+3ссв71397100 0.4 1022692
06:00+4св81383100 0.4 1022770
09:00+4ссв71476100 0.4 1022604
12:00+8св81261100 0.0 1022876
15:00+10св81150100 0.0 10211308
18:00+10св71153100 0.0 10211389
21:00+7ссв61355100 0.0 1021618
16 апреля, пт
пт1600:00+6св61270100 0.0 1021898
03:00+5ссв71275100 0.3 1020708
06:00+5ссв71285100 0.1 1019670
09:00+5ссв61291100 0.4 1019601
12:00+6св61191100 0.3 1020674
15:00+6св5992100 0.7 1020669
18:00+8всв5988100 0.0 1020748
21:00+8св51190100 0.0 1022451
17 апреля, сб
сб1700:00+8св51293100 0.4 1022543
03:00+7св4109698 0.5 1022262
06:00+7св51094100 0.0 1022344
09:00+7всв51192100 0.0 1022463
12:00+7всв5892100 0.1 1023418
15:00+10в5784100 0.2 1024671
18:00+10всв5883100 0.1 1024648
21:00+10в5118197 0.1 1024335
18 апреля, вс
вс1800:00+9всв3986100 0.0 1025249
03:00+8всв389487 0.0 1025225
06:00+7всв3893100 0.0 1025199
09:00+9в4993100 0.0 1025343
12:00+12в577875 0.0 1026586
15:00+15в6860100 0.2 10251396
18:00+14вюв4969100 0.8 1024558
21:00+12в4117693 0.9 1025296